Regional Weather Roundup
Issued by NWS Burlington, VT

Home | Current Version | Previous Version | Text Only | Print | Product List | Glossary On
Versions: 1 2 3 4 5 6 7 8 9 10 11 12 13 14 15 16 17 18 19 20 21 22 23 24 25 26 27 28 29 30 31 32 33 34 35 36 37 38 39 40 41 42 43 44 45 46 47 48 49 50
000
ASUS41 KBTV 231830
RWRBTV
VERMONT REGIONAL WEATHER ROUNDUP
NATIONAL WEATHER SERVICE BURLINGTON VT
200 PM EDT WED JUL 23 2014

NOTE: "FAIR" INDICATES FEW OR NO CLOUDS BELOW 12,000 FEET WITH NO
SIGNIFICANT WEATHER AND/OR OBSTRUCTIONS TO VISIBILITY.

* THESE REPORTS ARE NOT UNDER NWS QUALITY CONTROL AND/OR DO NOT
  REPORT WEATHER SUCH AS PRECIPITATION AND FOG.

VTZ001>019-231900-
_____VERMONT_____


CITY           SKY/WX    TMP DP  RH WIND       PRES   REMARKS
BURLINGTON     LGT RAIN  74  71  91 NW14      29.74R FOG
6HR MIN TEMP:  78; 6HR MAX TEMP:  87; 6HR PCP: TRACE;

MONTPELIER     PTCLDY    86  68  54 SW10G18   29.81F
6HR MIN TEMP:  74; 6HR MAX TEMP:  86;

MORRISVILLE    MOCLDY    84  68  58 SW8G16    29.75F
6HR MIN TEMP:  76; 6HR MAX TEMP:  85;

ST. JOHNSBURY*   N/A     80  67  64 MISG      29.72F
6HR MIN TEMP:  70; 6HR MAX TEMP:  81;

LYNDONVILLE*   MOCLDY    82  65  56 SW7       29.77F
6HR MIN TEMP:  73; 6HR MAX TEMP:  85;

MIDDLEBURY*    MOCLDY    86  71  59 S12       29.74F HX  91
6HR MIN TEMP:  76; 6HR MAX TEMP:  87;

RUTLAND*       MOCLDY    84  70  61 SW9G16    29.79F
6HR MIN TEMP:  75; 6HR MAX TEMP:  84;

SPRINGFIELD    PTCLDY    88  67  49 W10       29.80S HX  91
6HR MIN TEMP:  74; 6HR MAX TEMP:  89;

HIGHGATE*      RAIN      72  71  98 CALM      29.75R
6HR MIN TEMP:  70; 6HR MAX TEMP:  80;

NEWPORT*       HVY RAIN N/A N/A N/A CALM      29.79R
BENNINGTON     PTCLDY    87  70  56 VRB5      29.82F HX  92
6HR MIN TEMP:  74; 6HR MAX TEMP:  87;

MT. MANSFIELD*   N/A     66 N/A N/A W9G29       N/A

_____LAKE CHAMPLAIN_____


CITY           SKY/WX    TMP DP  RH WIND       PRES   REMARKS
BURTON ISLAND*   N/A     73  72  94 W3          N/A
COLCHESTER RF*   N/A     72  72 100 N22         N/A
DIAMOND ISL*     N/A     86  70  58 S18         N/A  HX  90

$$

NYZ007-026>031-035-052-083-231900-
_____NORTHERN NEW YORK_____


CITY           SKY/WX    TMP DP  RH WIND       PRES   REMARKS
PLATTSBURGH    LGT RAIN  73  71  93 CALM      29.74F FOG
6HR MIN TEMP:  72; 6HR MAX TEMP:  80; 6HR PCP:  0.65;

SARANAC LAKE   LGT RAIN  69  67  93 VRB5      29.82F FOG
6HR MIN TEMP:  68; 6HR MAX TEMP:  75; 6HR PCP:  0.23;

MASSENA        CLOUDY    75  71  87 W8        29.77F
6HR MIN TEMP:  72; 6HR MAX TEMP:  77; 6HR PCP:  1.04;

OGDENSBURG*    CLOUDY    72  66  83 NW7       29.81R
POTSDAM*       HVY RAIN  72  72 100 NW9G17    29.81R
WATERTOWN      CLOUDY    76  70  82 SW7       29.81S HAZE
6HR MIN TEMP:  73; 6HR MAX TEMP:  80; 6HR PCP:  0.19;

FT DRUM        CLOUDY    70  70 100 SW2       29.81F
6HR MIN TEMP:  69; 6HR MAX TEMP:  79; 6HR PCP:  0.30;

ALBANY         MOCLDY    89  73  59 S12       29.79F HX  97
6HR MIN TEMP:  76; 6HR MAX TEMP:  89;

GLENS FALLS    MOCLDY    87  70  56 SW12G20   29.76F HX  92
6HR MIN TEMP:  74; 6HR MAX TEMP:  88;


$$
NHZ002-005-011-231900-
_____NEW HAMPSHIRE_____


CITY           SKY/WX    TMP DP  RH WIND       PRES   REMARKS
LEBANON        PTCLDY    90  67  46 SW10G17   29.77F HX  93
6HR MIN TEMP:  76; 6HR MAX TEMP:  90;

KEENE          PTCLDY    88  66  48 SW15      29.80F HX  90
6HR MIN TEMP:  72; 6HR MAX TEMP:  88;

MT WASHINGTON  CLOUDY    59  57  94 W33         N/A
6HR MIN TEMP:  55; 6HR MAX TEMP:  60;

PLYMOUTH       MOCLDY    88  67  48 S6        29.76F HX  91
6HR MIN TEMP:  65; 6HR MAX TEMP:  88;

WHITEFIELD     MOCLDY    86  67  52 S8        29.76F
6HR MIN TEMP:  74; 6HR MAX TEMP:  86;


$$

_____REGIONAL QUEBEC LOCATIONS_____


CITY           SKY/WX    TMP DP  RH WIND       PRES   REMARKS
MONTREAL       MOCLDY    77  70  78 NW10      29.72S
QUEBEC CITY    MOCLDY    72  68  88 SW9       29.67S
SHERBROOKE     LGT RAIN  70  68  94 SW6       29.75F

_____REGIONAL ONTARIO LOCATIONS_____


CITY           SKY/WX    TMP DP  RH WIND       PRES   REMARKS
OTTAWA         PTCLDY    75  59  57 NW20      29.82R

______KEY______
VSB  - VISIBILITY IN MILES
WCI  - WIND CHILL INDEX
HX   - HEAT INDEX
$$



USA.gov is the U.S. government's official web portal to all federal, state and local government web resources and services.